Home > Weather > Sagamihara > Past weeks

Flag for Japan Weather for the Past 2 Weeks in Sagamihara, Japan

Now
58 °F

Clear.


Feels Like: 59 °F
Forecast: 49 / 81 °F
Wind: 3 mph from South

Location: Yokota Ab

Current Time: Apr 30, 2016 at 9:03:17 PM

Latest Report: Apr 30, 2016 at 7:58 PM


Visibility: 10 mi

Pressure: 29.92 "Hg

Humidity: 58%

Dew Point: 44 °F

Location of SagamiharaLocation

Historic Weather in Sagamihara — Graph

°F

Sagamihara Temperature Yesterday

Maximum temperature yesterday: 70 °F (at 2:03 PM)
Minimum temperature yesterday: 54 °F (at 11:58 PM)
Average temperature yesterday: 60 °F

High & Low Weather Summary for the Past Weeks

 TemperatureHumidityPressure
High79 °F (Apr 17, 2:58 PM)100% (Apr 22, 5:56 AM)30.36 "Hg (Apr 22, 5:56 AM)
Low43 °F (Apr 16, 5:58 AM)25% (Apr 29, 2:03 PM)29.38 "Hg (Apr 29, 12:58 AM)
Average60 °F69%29.92 "Hg
* Reported Apr 15 7:58 PM — Apr 30 7:58 PM, Sagamihara, Weather by CustomWeather, © 2016

Note: Actual official high and low records may vary slightly from our data, if they occured in-between our weather recording intervals... More about our weather records

Advertising

Sagamihara Weather History for the Previous 24 Hours

Scroll right to see more
 ConditionsComfort  
Time TempWeatherWind HumidityBarometerVisibility
7:58 PM
Sat, Apr 30
58 °FClear.3 mph58%29.92 "Hg10 mi
6:58 PM58 °FClear.6 mph60%29.91 "Hg10 mi
5:58 PM61 °FSunny.9 mph57%29.90 "Hg10 mi
4:58 PM64 °FSunny.14 mph45%29.89 "Hg10 mi
3:58 PM66 °FSunny.20 mph44%29.88 "Hg10 mi
2:58 PM65 °FScattered clouds.20 mph51%29.89 "Hg10 mi
1:58 PM69 °FPassing clouds.21 mph48%29.90 "Hg10 mi
12:58 PM69 °FScattered clouds.21 mph48%29.91 "Hg10 mi
11:58 AM68 °FScattered clouds.10 mph44%29.93 "Hg10 mi
10:58 AM67 °FSunny.8 mph36%29.94 "Hg10 mi
9:58 AM64 °FSunny.3 mph32%29.96 "Hg10 mi
8:58 AM62 °FSunny.3 mph29%29.96 "Hg10 mi
7:58 AM59 °FSunny.1 mph30%29.96 "Hg10 mi
6:58 AM53 °FSunny.3 mph46%29.95 "Hg10 mi
5:58 AM47 °FSunny.1 mph57%29.93 "Hg10 mi
4:58 AM47 °FSunny.8 mph50%29.90 "Hg10 mi
3:58 AM49 °FClear.6 mph46%29.89 "Hg10 mi
2:58 AM49 °FClear.12 mph44%29.87 "Hg10 mi
1:58 AM54 °FClear.7 mph32%29.85 "Hg10 mi
12:58 AM56 °FClear.9 mph30%29.85 "Hg10 mi
11:58 PM
Fri, Apr 29
54 °FClear.7 mph31%29.84 "Hg10 mi
10:58 PM55 °FClear.14 mph29%29.83 "Hg10 mi
9:58 PM55 °FClear.6 mph31%29.85 "Hg10 mi
Weather by CustomWeather, © 2016

See weather overviewHow to use our weather pages